User: anonymous   Login
Location: Unspecified
(0.0000°N, 0.0000°E)
Time: 09:07:32
(UTC+00:00)
Language:

Cosmos 1538 - Orbit

View from above orbital plane
View from above orbital plane
View from above satellite
View from above satellite

Ground track
Ground track

The orbit data is extracted from the following two-line orbital elements,

1 14759U 84019A   18020.82937672  .00000023  00000-0  17585-4 0  9998
2 14759  74.0404 132.9337 0022000 308.9005  51.0184 14.33583636773260
Epoch (UTC): 20 January 2018 19:54:18
Eccentricity: 0.0022000
inclination: 74.0404°
perigee height: 764 km
apogee height: 795 km
right ascension of ascending node: 132.9337°
argument of perigee: 308.9005°
revolutions per day: 14.33583636
mean anomaly at epoch: 51.0184°
orbit number at epoch: 77326

The dashed part of the orbit path shows where the satellite is in the earth's shadow,  

DLR